Location: *
(49.5667°N, 1.3667°W)
Time: 08:18:21
(UTC+00:00)

ATLAS 2AS CENTAUR R/B - Pass Details

Date: 20 September 2019
Orbit: 919 x 1292 km, 63.6° (Epoch: 21 September)

Event Time Altitude Azimuth Distance (km) Brightness Sun altitude
Rises 19:00:37 0° 317° (NW) 4,220 6.8 -9.2°
Reaches altitude 10° 19:03:32 10° 314° (NW) 3,214 6.2 -9.6°
Maximum altitude 19:11:06 60° 238° (WSW) 1,325 3.4 -10.8°
Drops below altitude 10° 19:18:01 10° 160° (SSE) 2,942 4.7 -11.9°
Sets 19:20:35 0° 157° (SSE) 3,843 5.2 -12.3°
